Location: Unspecified
(0.0000°N, 0.0000°E)
Time: 10:28:29
(UTC+00:00)

Explorer 11/Cluster Stage 4 - Pass Details

Date: 06 October 2020
Orbit: 467 x 1258 km, 28.8° (Epoch: 28 October)

Event Time Altitude Azimuth Distance (km) Brightness Sun altitude
Rises 05:02:08 0° 303° (WNW) 3,704 - -11.4°
Exits shadow 05:04:24 - 304° (WNW) 2,942 9.0 -10.9°
Reaches altitude 10° 05:04:39 10° 304° (NW) 2,858 8.9 -10.8°
Maximum altitude 05:11:54 82° 31° (NNE) 1,190 7.5 -9.0°
Drops below altitude 10° 05:20:09 10° 118° (ESE) 3,224 11.0 -6.9°
Sets 05:23:08 0° 119° (ESE) 4,200 11.7 -6.2°
